• Join FlightAware (Why Join?)
  • Login
  • US Flag GB Flag 
00:41 EDT


 

Airport Tracker/Info


-or-


 

Live Flight TrackerFlight Track Log ✈ N603JH ✈ 01-Feb-2014 ✈ KSFB - KPIE

Flight Track Log - Related Links

Times and Time Zones

All times are in EST time to prevent confusion due to time zone crossing. See the N603JH flight status page for this flight to view local times or setup timezone preferences in your user account.

Time Position Orientation Groundspeed Altitude Reporting Facility
EST Latitude Longitude Course Direction KTS MPH feet Rate Location/Type
14:43 28.7833 -81.2167 90° East 171 197 400  Level Orlando TRACON
14:44 28.7833 -81.1667 90° East 126 145 1,200 540 Climbing Orlando TRACON
14:45 28.7667 -81.1333 120° Southeast 132 152 1,700 420 Climbing Orlando TRACON
14:46 28.7500 -81.1167 139° Southeast 130 150 2,100 420 Climbing Orlando TRACON
14:47 28.7500 -81.1667 270° West 125 144 2,700 420 Climbing Orlando TRACON
14:48 28.7500 -81.2000 270° West 126 145 3,100 360 Climbing Orlando TRACON
14:49 28.7500 -81.2500 270° West 125 144 3,500 360 Climbing Orlando TRACON
14:50 28.7500 -81.2833 270° West 134 154 3,800 240 Climbing Orlando TRACON
14:51 28.7500 -81.3167 270° West 125 144 4,000 60 Climbing Orlando TRACON
14:52 28.7500 -81.3667 270° West 146 168 4,000  Level Orlando TRACON
14:53 28.7333 -81.4167 249° West 153 176 4,000  Level Orlando TRACON
14:54 28.7167 -81.4500 240° Southwest 152 175 4,000 60 Level Orlando TRACON
14:55 28.7167 -81.5000 270° West 150 173 4,200 300 Climbing Orlando TRACON
14:56 28.6833 -81.5333 221° Southwest 125 144 4,700 600 Climbing Orlando TRACON
14:57 28.6667 -81.5667 240° Southwest 121 139 5,500 600 Climbing Orlando TRACON
14:58 28.6500 -81.6000 240° Southwest 111 128 6,000 240 Climbing Orlando TRACON
14:59 28.6333 -81.6333 240° Southwest 141 162 6,000  Level Orlando TRACON
15:00 28.6000 -81.6667 221° Southwest 149 171 6,000  Level Orlando TRACON
15:01 28.5667 -81.7000 221° Southwest 149 171 6,000 -60 Level Orlando TRACON
15:03 28.5333 -81.7667 240° Southwest 148 170 5,900 -60 Descending Tampa TRACON
15:04 28.5000 -81.8000 221° Southwest 147 169 5,900  Level Tampa TRACON
15:05 28.4833 -81.8500 249° West 148 170 5,900  Level Tampa TRACON
15:06 28.4500 -81.8833 221° Southwest 150 173 5,900  Level Tampa TRACON
15:07 28.4333 -81.9167 240° Southwest 151 174 5,900  Level Tampa TRACON
15:08 28.4167 -81.9500 240° Southwest 149 171 5,900  Level Tampa TRACON
15:09 28.4167 -82.0167 270° West 173 199 5,900 -60 Level Tampa TRACON
15:10 28.4167 -82.0667 270° West 169 194 5,800 -360 Descending Tampa TRACON
15:11 28.4000 -82.1167 249° West 167 192 5,200 -600 Descending Tampa TRACON
15:12 28.4000 -82.1667 270° West 159 183 4,700 -600 Descending Tampa TRACON
15:13 28.4000 -82.2167 270° West 158 182 4,000 -420 Descending Tampa TRACON
15:14 28.3833 -82.2667 249° West 154 177 3,900  Descending Tampa TRACON
15:15 28.3833 -82.3167 270° West 146 168 4,000  Climbing Tampa TRACON
15:16 28.3833 -82.3500 270° West 149 171 3,900 -60 Descending Tampa TRACON
15:17 28.3667 -82.4167 254° West 162 186 3,900  Level Tampa TRACON
15:18 28.3667 -82.4667 270° West 167 192 3,900  Level Tampa TRACON
15:19 28.3667 -82.5167 270° West 163 188 3,900  Level Tampa TRACON
15:20 28.3667 -82.5667 270° West 161 185 3,900 -300 Level Tampa TRACON
15:21 28.3333 -82.6000 221° Southwest 136 157 3,400 -540 Descending Tampa TRACON
15:22 28.3000 -82.6333 221° Southwest 147 169 2,900 -240 Descending Tampa TRACON
15:23 28.2833 -82.6667 240° Southwest 141 162 3,000  Climbing Tampa TRACON
15:24 28.2500 -82.7000 221° Southwest 147 169 3,000 -60 Level Tampa TRACON
15:25 28.2167 -82.7000 180° South 154 177 2,900  Descending Tampa TRACON
15:26 28.1667 -82.7000 180° South 145 167 3,000 -240 Climbing Tampa TRACON
15:27 28.1333 -82.7000 180° South 143 165 2,500 -600 Descending Tampa TRACON
15:28 28.0833 -82.7167 196° South 147 169 1,800 -420 Descending Tampa TRACON
15:29 28.0500 -82.7167 180° South 139 160 1,700 -120 Descending Tampa TRACON
15:30 28.0167 -82.7167 180° South 107 123 1,600 -180 Descending Tampa TRACON
15:31 28.0000 -82.7000 139° Southeast 82 94 1,400 -360 Descending Tampa TRACON
15:32 27.9667 -82.7000 180° South 81 93 900 -480 Descending Tampa TRACON
15:33 27.9500 -82.7000 180° South 81 93 600 -360 Descending Tampa TRACON
15:35 27.9100 -82.6875 221° Southwest  Level Estimated